This demonstration page uses our WeatherBlox Daily Observations layout. Learn more.

41.86663, -103.66717

Hourly Observations for July 2, 2020

Temp ( °F °C ) Dew Point ( °F °C ) Humidity (%) Winds ( mph kmh ) Pressure ( in mb ) Visibility ( mi km ) Precip ( " mm )
12:53 am 00:53 Clear 68 20 52 11.1 57 57 ESE 9 15 29.84 1011 10 16.0934 0 0
1:53 am 01:53 Clear 67 19.4 53 11.7 61 61 E 7 11 29.86 1011 10 16.0934 0 0
2:53 am 02:53 Clear 67 19.4 54 12.2 63 63 ESE 14 22 29.85 1011 10 16.0934 0 0
3:53 am 03:53 Mostly Cloudy 67 19.4 56 13.3 68 68 ESE 15 24 29.85 1011 10 16.0934 0 0
4:53 am 04:53 Cloudy 67 19.4 57 13.9 71 71 ESE 13 20 29.86 1011 10 16.0934 0 0
5:53 am 05:53 Mostly Cloudy 66 18.9 59 15 78 78 undefined N/A 29.87 1011 10 16.0934 0 0
6:00 am 06:00 Partly Cloudy 66 18.9 59 15 78 78 ESE 17 28 29.85 1011 10 16.0934 0 0
6:53 am 06:53 Sunny 69 20.6 62 16.7 78 78 undefined N/A 29.87 1012 10 16.0934 0 0
7:53 am 07:53 Sunny 73 22.8 64 17.8 74 74 SE 16 26 29.87 1012 10 16.0934 0 0
8:53 am 08:53 Mostly Cloudy 77 25 66 18.9 69 69 ESE 17 28 29.89 1012 10 16.0934 0 0
9:53 am 09:53 Mostly Sunny 85 29.4 64 17.8 50 50 SSE 20 31 29.87 1012 10 16.0934 0 0
10:53 am 10:53 Sunny 86 30 61 16.1 43 43 SE 14 22 29.86 1011 10 16.0934 0 0
11:53 am 11:53 Sunny 91 32.8 63 17.2 39 39 S 17 28 29.85 1011 10 16.0934 0 0
12:53 pm 12:53 Sunny 94 34.4 60 15.6 32 32 SSE 20 31 29.83 1010 10 16.0934 0 0
1:44 pm 13:44 Sunny with Nearby Thunderstorms 95 35 62 16.7 34 34 SE 20 31 29.59 1002 10 16.0934 0 0
1:53 pm 13:53 Sunny 94 34.4 62 16.7 35 35 ESE 22 35 29.81 1009 10 16.0934 0 0
2:53 pm 14:53 Sunny 92 33.3 64 17.8 40 40 ESE 26 43 29.79 1009 10 16.0934 0 0
3:53 pm 15:53 Sunny 93 33.9 64 17.8 38 38 ESE 25 41 29.79 1009 10 16.0934 0 0
4:53 pm 16:53 Sunny 90 32.2 62 16.7 39 39 SE 23 37 29.79 1009 10 16.0934 0 0
5:53 pm 17:53 Sunny 86 30 53 11.7 32 32 SE 13 20 29.8 1009 10 16.0934 0 0
6:53 pm 18:53 Sunny 83 28.3 57 13.9 41 41 ESE 13 20 29.8 1009 10 16.0934 0 0
7:53 pm 19:53 Sunny 79 26.1 60 15.6 52 52 ESE 8 13 29.79 1009 10 16.0934 0 0
8:53 pm 20:53 Clear 79 26.1 54 12.2 42 42 ESE 18 30 29.83 1010 10 16.0934 0 0
9:53 pm 21:53 Clear 76 24.4 52 11.1 43 43 SE 14 22 29.86 1011 10 16.0934 0 0
10:53 pm 22:53 Clear 74 23.3 53 11.7 48 48 ESE 8 13 29.88 1012 10 16.0934 0 0
11:53 pm 23:53 Clear 71 21.7 54 12.2 55 55 ESE 7 11 29.88 1012 10 16.0934 0 0

Powered by AerisWeather